Volver al catálogo

USA 463

ActivoMilitarVLEO
NORAD 62532·PAYLOAD·🇺🇸 United States

Lanzado Jan 10, 2025 desde Vandenberg Space Force Base

Loading…

Próximos Pases (próximas 24 horas)

TLE

ObsoletoSource: Mike McCants

Época: Aug 26, 2026, 02:13 UTC

1 62532U 25005A   26238.09303877 0.00000000  00000-0  00000-0 0    01
2 62532  70.0250 226.5361 0003000 202.8662 157.1338 14.96713500    02

Sigue USA 463 en tiempo real con AllMySat

Download on the App Store